Preview of NWS' New Version of Forecast
This preview is not operational and should not be used for support decisions.

Terminal Aerodrome Forecast (TAF)

Issued by National Weather Service (NWS)

                            
000
FTUS42 KCAE 151526 AAA
TAFOGB
TAF AMD
KOGB 151526Z 1515/1612 06009KT P6SM SCT040
     FM160200 03005KT P6SM FEW250=